Wind_Speed
35 35 34 34 34 35 36 36 37 37 36 35 37 39 39 38 38 40 40 40 41 41 41 43 47 54 62 68 70 65 61 56 52 49 47 46 45 46 47 48 48 49 50 51 52 53 53 54 54 53 52 52 53 54 55 57 60 62 63 65 66 67 68 68 68 69 70 72 72 71 69 68 65 63 60 59 57 56 54 53 52 50 48 46 44
35 35 35 35 35 35 37 38 37 37 36 36 37 37 36 36 38 39 40 41 42 45 46 46 51 58 65 68 67 63 59 55 51 48 45 44 45 47 49 49 49 50 51 52 53 53 53 52 51 51 52 54 56 58 59 60 62 64 65 66 68 68 69 69 70 71 71 71 70 68 66 64 62 59 57 56 55 54 52 51 50 49 47 45 43
35 35 36 36 35 36 37 37 36 36 37 37 37 36 35 38 39 38 40 43 45 51 53 52 55 61 65 65 62 58 54 52 49 46 45 46 47 49 49 49 49 50 52 52 52 51 50 50 51 53 55 57 59 61 62 63 64 66 67 68 69 69 70 71 71 71 70 68 66 63 62 60 59 58 57 55 54 53 52 50 49 48 46 45 43
35 36 36 36 35 35 35 35 35 36 38 39 38 37 38 41 43 42 45 47 50 55 57 56 58 61 62 60 56 52 49 48 47 46 46 47 48 48 48 48 49 50 50 50 49 49 51 53 54 56 58 59 61 63 64 66 67 68 68 69 70 71 71 72 71 70 68 65 62 59 58 58 58 58 57 56 55 54 53 50 49 48 47 45 43
35 36 36 36 35 34 33 33 35 37 39 41 40 40 42 46 48 50 52 53 55 57 57 57 59 59 59 56 52 49 46 44 44 44 45 46 47 48 48 48 47 46 47 48 50 52 54 55 57 58 60 61 63 65 67 68 69 69 70 71 71 72 72 71 69 67 64 62 60 58 57 57 57 57 58 57 57 56 54 52 50 49 48 46 44
37 37 37 36 35 34 32 32 35 39 42 45 44 43 46 49 52 54 55 55 56 57 57 57 57 56 55 53 50 47 43 41 40 42 44 46 46 47 47 47 46 46 47 50 53 55 56 58 59 61 62 64 67 68 69 69 70 71 71 71 71 71 70 68 65 63 61 60 59 59 58 57 57 57 57 57 57 56 55 53 51 50 49 47 45
38 38 38 36 35 34 33 33 36 40 44 47 46 47 49 52 55 57 58 56 55 56 56 56 55 53 52 50 47 45 42 39 38 39 41 42 44 45 46 48 50 51 52 53 55 57 59 60 62 64 66 68 69 69 69 69 70 71 70 70 69 68 66 63 61 60 60 59 59 59 59 58 58 57 56 55 55 55 55 54 52 51 50 49 47
38 38 37 35 35 35 35 36 38 40 43 46 48 49 51 54 57 59 60 58 56 55 54 54 53 51 49 47 44 42 40 39 38 37 37 38 41 45 47 50 52 54 56 57 58 60 61 63 65 67 68 69 68 68 68 69 69 69 69 68 66 64 61 60 60 59 58 58 58 59 59 59 58 57 55 54 54 54 54 55 54 52 51 50 49
36 36 34 35 36 37 37 39 39 39 42 44 47 50 52 56 58 59 59 58 56 53 53 53 51 48 46 44 42 40 39 38 39 40 40 42 43 46 48 50 52 54 57 59 61 63 65 66 67 68 68 67 67 67 67 67 67 67 66 65 62 61 59 59 59 58 58 59 59 60 60 60 59 58 57 55 54 54 54 54 54 53 53 52 51
33 33 35 36 38 38 38 39 39 40 42 45 48 51 53 56 58 58 59 58 55 52 51 50 48 46 44 42 41 40 39 40 42 44 46 46 47 48 49 51 53 56 58 61 64 66 67 68 67 67 67 66 66 66 66 66 66 65 63 61 60 59 59 59 58 58 59 60 61 61 61 61 61 61 60 58 57 55 55 55 55 54 54 53 53
33 35 36 37 38 39 39 40 41 43 45 48 51 53 55 57 57 58 60 57 53 51 50 48 46 44 42 42 42 42 42 44 45 47 47 48 49 50 52 54 56 59 61 63 65 66 67 67 67 67 67 66 65 65 65 64 64 62 60 59 59 59 59 58 58 59 60 62 63 63 63 64 64 64 64 62 61 59 57 56 56 55 55 55 54
35 37 38 39 39 40 41 43 45 47 50 52 53 55 57 57 56 58 59 55 51 50 49 47 45 43 43 43 43 44 45 46 47 47 48 50 51 53 55 57 60 62 64 64 65 65 66 66 66 66 67 66 65 65 64 63 61 59 58 58 59 59 58 58 59 60 62 63 64 64 65 66 67 67 67 66 65 63 60 58 57 56 56 56 56
37 38 39 41 42 43 45 47 49 51 52 53 55 56 56 55 55 57 58 54 50 49 49 47 45 44 45 45 46 46 46 47 48 48 50 51 54 56 58 60 62 63 64 65 65 65 65 64 64 65 65 65 65 65 63 61 59 58 58 58 59 59 59 59 60 61 63 64 65 66 67 69 70 70 70 69 67 65 63 61 59 58 57 57 57
38 40 42 44 45 46 48 50 51 52 53 54 55 55 55 55 56 57 56 53 50 49 48 47 46 46 46 46 46 46 46 48 49 50 52 54 56 58 60 62 63 63 64 65 65 65 64 64 63 63 64 64 64 63 61 59 58 58 58 59 59 59 59 60 61 63 64 65 67 68 70 71 72 73 72 71 70 67 65 62 60 59 58 58 58
42 43 45 46 48 49 50 51 52 53 53 55 55 56 57 57 57 57 55 52 50 49 47 47 46 46 45 46 46 46 47 48 50 52 54 56 57 59 61 62 63 64 64 64 64 64 63 63 63 63 63 63 62 60 59 58 58 59 59 59 59 59 60 62 63 64 65 67 69 71 72 73 74 74 73 72 70 68 66 63 61 59 58 58 58
46 46 46 47 48 50 51 52 53 53 55 57 58 58 58 57 57 57 54 52 50 48 47 46 46 45 45 46 47 47 47 49 52 53 55 57 58 59 61 62 62 63 63 63 63 63 63 62 62 63 62 61 60 59 58 59 59 60 60 60 60 61 62 63 64 66 68 70 71 73 74 75 75 74 72 70 68 66 64 62 61 60 58 58 58
46 46 47 49 51 52 52 53 54 56 57 58 59 59 57 56 57 56 53 51 50 48 47 46 46 46 46 47 48 49 50 51 53 55 56 57 58 59 60 61 61 61 61 62 62 62 62 62 62 62 61 60 59 59 59 60 61 62 62 62 62 63 63 64 66 68 70 72 74 75 76 75 74 73 70 68 66 63 62 61 60 59 58 57 57
47 49 51 52 53 54 54 55 56 57 58 59 59 57 56 56 57 56 53 50 49 48 46 46 46 46 46 47 49 50 52 54 55 57 58 58 58 58 59 59 59 59 60 61 61 61 61 62 61 61 60 60 60 60 61 62 63 64 64 63 63 64 65 67 69 71 73 75 76 76 76 74 72 69 67 65 64 62 61 60 59 58 58 57 56
50 51 52 53 53 54 55 55 56 57 58 58 58 57 56 57 57 55 52 49 48 47 46 45 45 46 46 48 50 52 53 54 56 57 58 58 58 57 57 57 59 59 60 60 60 61 61 61 60 60 61 61 62 62 63 64 64 65 65 65 65 66 68 71 73 75 76 77 77 76 74 71 68 65 63 62 61 61 61 61 60 59 57 56 55
51 52 52 53 53 53 54 56 57 57 58 58 57 57 56 57 57 54 51 48 47 47 46 45 45 46 47 48 50 52 53 54 55 55 57 58 57 56 56 57 58 58 59 60 60 60 60 60 60 60 61 62 63 64 65 65 66 66 66 66 67 69 71 74 76 78 79 78 77 75 71 68 65 62 61 60 59 60 60 61 61 60 59 56 54
52 52 52 52 52 54 55 57 57 57 57 57 57 57 57 57 56 53 50 48 47 46 46 46 47 47 49 50 51 52 53 53 53 53 54 55 56 57 57 57 57 57 58 60 61 60 59 60 60 61 62 63 65 65 66 67 67 68 68 68 70 72 74 77 79 79 79 79 76 73 69 65 62 60 59 59 58 59 59 60 60 61 60 58 54
52 53 52 52 54 55 56 57 57 57 57 58 58 57 57 56 54 51 49 48 47 47 47 47 48 49 50 52 52 52 52 52 52 51 51 52 55 56 57 57 58 58 58 60 61 60 60 61 61 62 63 65 66 67 68 68 69 69 70 71 72 74 77 79 80 80 80 78 75 70 66 62 60 58 58 57 57 57 58 60 60 60 60 58 55
52 53 53 54 56 56 57 57 57 58 59 59 59 57 56 55 52 50 48 48 47 47 48 48 49 50 52 52 52 53 53 52 51 50 50 51 52 54 55 56 57 58 59 61 62 62 62 63 63 64 65 67 68 69 69 69 69 70 71 73 75 77 79 81 81 81 79 76 72 68 64 61 59 57 56 55 55 55 56 58 60 61 60 59 55
52 54 54 55 57 57 57 58 59 60 60 59 58 56 54 53 50 49 48 48 47 48 49 49 50 52 52 52 53 54 53 52 50 50 50 50 51 52 54 54 55 57 58 60 63 64 63 63 64 66 67 68 69 70 70 70 70 71 73 76 78 80 81 83 83 81 79 75 70 66 63 60 58 56 54 53 52 53 54 56 59 60 60 59 56
53 55 56 56 57 58 59 60 60 60 58 57 55 53 52 50 49 48 48 48 48 49 49 50 51 52 52 53 53 53 52 50 50 49 50 51 52 53 54 54 55 56 57 59 61 63 63 63 64 66 67 69 70 70 70 71 72 73 76 78 81 82 84 85 84 81 77 73 70 66 63 60 58 55 53 51 50 50 52 54 57 59 59 58 56
54 56 57 58 59 59 60 60 59 58 56 55 53 51 49 48 48 48 48 49 49 50 50 51 51 52 53 53 53 52 50 49 49 50 52 53 54 54 55 56 57 57 58 59 60 62 63 63 64 66 67 69 69 70 71 72 74 76 78 81 83 85 86 86 84 80 76 73 69 66 63 60 57 53 51 49 48 48 49 52 54 56 57 56 56
56 57 58 60 60 60 60 59 57 56 54 52 50 49 48 47 48 48 49 50 50 50 51 51 52 52 53 53 52 50 49 49 50 52 53 54 55 56 57 59 59 59 60 60 60 62 64 65 66 67 68 69 70 71 73 74 77 79 81 83 86 87 87 86 83 79 75 72 69 66 63 59 56 52 49 46 45 46 48 50 52 53 55 55 54
58 58 59 60 60 59 58 56 55 54 52 50 48 47 47 47 48 49 50 50 50 50 51 51 52 53 53 52 51 50 49 50 52 53 54 55 56 57 59 60 62 62 62 62 62 63 65 67 68 69 70 71 72 74 75 77 79 82 84 86 88 89 88 86 82 79 75 72 69 67 63 60 56 52 48 45 43 44 46 48 49 51 53 54 53
60 59 59 59 58 56 55 54 53 51 49 47 47 46 47 48 49 49 50 50 50 50 51 52 53 53 53 52 50 49 50 52 53 54 56 57 58 59 61 62 63 64 64 65 66 67 67 69 70 72 72 73 75 77 78 80 83 85 87 89 90 90 88 85 81 78 75 72 70 67 65 62 58 53 48 44 42 42 44 45 47 49 51 52 52
59 58 58 57 56 54 53 52 50 48 47 46 46 47 47 48 49 49 49 49 50 50 52 53 53 53 52 49 48 49 51 53 54 56 57 59 60 61 62 63 64 65 66 67 68 69 70 71 71 73 74 75 76 79 81 83 86 88 90 91 92 90 87 84 81 78 75 72 71 68 65 63 59 54 49 44 42 42 42 44 45 47 49 50 50
58 56 56 54 53 52 50 49 48 46 46 46 46 47 47 48 48 49 49 49 50 51 53 53 53 52 49 48 48 50 52 54 56 57 59 60 61 62 63 64 65 66 68 68 68 69 71 72 73 73 75 77 78 81 83 86 88 90 92 93 93 90 86 83 81 78 76 73 71 68 65 62 58 54 49 45 43 43 43 43 44 44 46 48 48
55 54 53 52 51 49 48 47 46 46 46 46 46 47 47 47 48 48 48 49 51 52 53 53 51 49 48 48 49 51 53 55 57 58 60 61 62 63 64 66 67 67 68 69 70 70 70 71 73 75 76 78 80 82 85 87 89 92 94 94 92 89 85 82 80 77 75 73 70 68 64 61 57 53 49 45 44 43 43 43 42 41 42 45 46
53 52 51 49 48 47 46 45 45 45 45 45 46 47 47 47 47 47 48 50 52 53 53 52 50 48 48 49 50 52 54 56 58 59 60 62 63 64 66 66 67 68 69 70 71 72 71 72 74 75 77 79 81 83 86 88 91 94 95 94 90 87 84 80 77 75 74 72 69 67 64 60 56 51 47 44 44 44 42 42 40 38 38 40 42
51 50 48 47 46 45 45 44 44 45 45 46 46 46 46 46 47 48 50 51 52 53 52 51 50 49 48 50 51 53 55 57 58 60 62 63 64 66 67 67 68 69 70 71 72 73 74 75 76 77 79 80 83 85 87 90 92 94 93 91 88 85 81 76 73 73 72 71 69 66 63 60 56 50 46 44 44 44 43 42 40 37 35 36 37
49 47 46 45 44 44 44 44 44 45 45 46 46 46 46 46 48 49 51 52 52 52 52 51 50 49 50 51 53 54 56 58 60 62 63 65 66 67 68 68 69 70 71 71 72 74 75 77 78 79 81 83 84 86 89 91 92 92 90 88 85 82 78 73 70 70 70 70 68 66 63 60 56 51 47 45 44 44 44 43 41 38 36 35 35
46 45 44 44 43 43 43 44 44 45 45 46 46 46 46 47 49 51 51 52 52 52 52 51 50 51 51 53 54 56 59 60 62 63 65 65 66 68 69 69 70 71 71 72 73 74 76 78 79 80 82 84 86 87 89 91 91 89 87 85 81 78 74 71 68 68 69 69 67 65 63 61 58 54 50 47 44 43 42 42 41 39 37 35 35
45 44 43 43 43 43 43 44 45 45 45 45 46 46 47 49 50 51 51 52 52 52 51 51 51 51 53 55 57 59 61 62 63 64 65 66 67 69 70 71 71 71 72 72 73 74 75 78 80 81 83 84 86 88 90 90 88 86 84 82 78 74 71 68 67 67 68 68 67 65 63 63 61 57 53 49 45 41 40 40 39 37 35 35 35
44 43 43 42 42 43 43 44 44 44 44 45 46 46 48 49 50 51 52 52 52 51 50 51 51 53 54 56 58 60 62 62 63 64 66 67 68 70 71 71 71 72 72 73 74 75 76 78 80 82 83 84 86 89 90 88 85 82 79 77 74 71 68 67 66 66 66 67 67 65 63 64 63 59 55 50 44 40 39 39 39 38 35 34 33
43 42 42 42 42 43 44 44 44 44 44 45 46 47 49 50 50 52 53 52 50 50 51 51 53 54 56 57 59 60 61 62 64 65 66 68 69 71 71 71 72 72 73 74 74 75 77 79 80 82 83 85 87 89 88 86 83 79 75 72 70 69 68 66 64 63 64 66 67 65 63 64 63 60 55 49 43 41 41 41 40 39 37 34 33
43 42 42 42 42 43 44 44 44 44 44 45 46 47 49 51 51 51 51 50 49 50 51 52 53 55 56 58 59 60 61 62 64 65 67 69 70 71 71 72 72 72 73 74 75 76 77 79 81 83 84 86 88 88 86 83 80 76 73 69 67 65 66 65 63 62 62 64 65 64 62 62 62 58 52 48 46 44 43 43 42 40 38 35 33
43 42 42 42 42 43 44 44 44 45 45 45 46 47 49 52 52 51 49 48 49 50 51 52 54 55 56 58 59 61 62 63 64 66 68 70 71 71 72 72 72 72 73 74 75 77 78 80 82 84 85 87 88 86 83 80 76 73 70 67 65 64 65 65 64 62 60 62 64 62 60 58 58 56 52 49 48 46 44 43 43 42 39 36 33
43 43 42 42 43 44 44 45 45 46 46 46 46 47 50 51 51 49 49 49 50 52 52 53 54 55 56 58 60 61 62 64 65 67 69 71 71 72 72 72 72 72 73 74 76 77 79 80 82 84 86 87 86 83 80 76 73 70 68 66 65 65 63 62 62 61 60 60 61 60 58 57 57 56 53 50 48 46 44 44 44 43 41 39 36
44 44 43 43 44 45 45 45 46 46 46 46 46 48 50 50 49 48 49 50 52 53 53 53 54 55 56 58 60 61 63 64 66 68 70 71 71 72 72 71 72 72 73 75 76 77 79 81 82 84 86 85 83 80 76 72 70 68 66 64 64 62 60 57 57 58 58 57 58 58 56 56 56 56 53 49 47 46 45 45 45 44 43 41 37
44 45 44 44 45 46 46 46 47 47 47 46 46 47 48 48 47 48 49 51 52 52 52 53 54 55 56 58 60 61 63 65 67 69 70 71 71 71 71 71 72 73 73 75 76 78 79 81 82 84 85 84 81 77 72 69 67 65 63 62 61 60 58 55 54 54 55 55 56 56 54 53 54 55 53 50 48 47 46 46 46 45 44 42 37
45 45 45 45 46 47 47 47 48 48 48 47 46 46 46 46 47 48 50 51 52 52 52 52 53 55 56 58 60 62 63 65 67 69 70 71 71 71 71 71 72 73 74 75 77 78 80 82 83 85 84 81 79 74 69 66 64 61 60 60 59 58 57 55 54 53 54 55 54 54 52 50 52 55 54 51 50 48 47 47 47 46 45 42 37
46 46 46 46 47 48 48 48 48 49 48 48 47 47 48 48 49 50 51 52 51 51 51 52 53 55 57 59 61 62 64 66 68 70 71 71 71 71 71 72 73 74 75 76 77 78 80 82 84 84 82 80 76 71 67 64 61 59 58 57 57 57 56 56 54 54 54 54 53 52 50 49 50 54 55 53 51 50 48 47 47 46 45 42 37
46 47 47 47 48 48 49 49 49 50 49 47 48 49 50 50 51 52 52 52 51 51 51 52 54 55 57 60 61 63 64 67 69 70 71 72 71 71 71 72 73 74 75 76 78 79 80 82 83 83 81 78 74 68 65 62 60 58 57 56 55 55 56 56 55 54 55 55 54 52 51 49 49 53 56 55 52 49 48 47 47 46 44 41 37
46 47 47 48 48 49 49 49 50 50 49 48 49 51 51 51 51 52 52 51 51 51 51 53 55 56 58 60 62 64 66 68 70 71 72 72 71 71 72 72 73 75 76 77 78 79 80 82 82 81 79 76 71 67 64 61 59 58 56 55 55 55 56 56 56 55 55 55 54 52 51 49 48 50 54 55 52 49 47 47 48 46 44 41 37
46 47 47 48 49 49 49 49 50 51 50 49 51 52 52 51 52 52 52 52 51 52 52 53 55 57 59 61 64 65 67 69 71 72 72 72 72 72 72 72 73 75 75 76 78 79 80 82 80 78 77 74 69 66 64 61 58 57 55 53 53 54 55 55 54 54 53 53 53 53 51 49 46 47 51 53 52 49 46 46 48 47 44 41 36
47 47 48 49 49 49 49 49 51 51 50 50 52 53 53 52 51 51 51 52 53 53 53 55 56 58 60 63 65 67 69 70 72 72 72 72 72 72 72 73 74 74 75 76 77 79 80 80 78 76 75 71 68 66 64 61 59 58 55 52 51 53 54 54 53 52 52 53 52 52 50 47 45 45 46 47 50 51 48 46 47 47 44 40 35
48 48 49 49 49 49 49 49 50 51 51 51 53 54 55 53 52 51 52 53 55 56 56 57 59 61 62 64 66 68 70 71 72 73 72 72 72 72 73 73 74 74 75 76 78 79 80 78 76 75 73 69 67 66 64 61 60 59 56 52 51 52 54 54 52 50 50 50 51 50 47 44 42 43 42 39 40 46 48 46 44 44 42 38 33
Wind_Direction
298 300 302 304 306 307 307 308 308 307 307 309 313 316 318 317 316 316 313 311 311 311 310 302 299 302 305 309 310 310 309 307 305 302 300 300 299 298 297 297 297 297 297 297 296 297 297 297 297 297 297 297 297 298 298 298 298 298 298 298 298 299 299 298 298 299 299 299 299 299 298 298 298 297 297 296 295 293 292 290 288 286 283 280 277
297 299 302 304 305 306 306 308 307 307 309 309 312 318 323 321 319 318 315 311 309 311 312 303 299 300 303 306 308 308 308 306 304 302 301 299 298 297 298 299 300 300 299 299 299 299 299 299 299 299 299 300 300 300 299 299 298 299 300 300 300 300 299 299 299 299 300 300 300 300 299 299 298 297 296 295 294 292 291 289 287 285 282 280 276
297 298 301 303 305 306 306 308 308 309 310 307 310 318 324 324 322 318 314 310 303 305 309 303 299 300 303 305 306 307 307 304 303 301 299 297 297 298 299 299 300 300 300 300 300 300 300 300 300 301 301 300 300 300 300 300 301 301 301 301 301 300 300 300 300 300 300 300 300 300 299 299 298 298 296 295 293 292 290 288 286 284 281 279 276
296 298 300 302 305 306 306 308 309 310 308 304 307 314 320 324 324 319 315 312 305 306 309 304 301 302 303 305 306 307 306 304 302 300 299 299 299 299 299 299 300 300 301 301 301 301 301 301 301 301 301 301 301 302 303 303 303 303 302 302 301 301 301 301 301 301 301 301 300 299 299 299 298 298 297 295 294 291 289 287 285 282 280 277 275
294 297 299 301 303 303 305 307 307 306 303 303 305 311 317 320 322 321 319 316 312 311 310 305 303 304 305 306 307 307 306 304 303 302 301 301 301 301 301 301 301 301 302 303 303 303 302 302 302 302 303 304 304 305 304 304 304 304 303 303 302 302 302 302 302 302 301 301 300 300 299 298 298 298 297 295 294 291 289 286 284 281 279 276 273
294 296 298 300 300 300 303 305 304 302 301 303 305 308 313 316 318 320 320 317 313 311 309 306 305 306 306 307 308 308 306 304 303 302 303 303 304 305 305 305 304 303 303 303 304 304 304 304 304 305 305 305 306 305 305 305 304 304 303 303 303 302 302 302 302 301 301 301 300 300 299 298 298 297 296 295 293 291 289 286 283 280 278 275 272
295 297 298 299 299 299 301 301 299 299 300 301 302 305 308 312 314 315 316 314 312 311 308 307 307 307 307 307 308 308 306 305 303 303 304 306 308 308 309 309 308 307 306 305 305 305 305 306 306 306 306 306 306 305 305 304 304 303 303 303 303 302 302 301 301 301 300 300 300 300 300 299 298 297 296 295 293 291 288 286 282 278 276 274 271
295 296 297 298 298 299 299 297 295 295 297 297 298 301 304 308 311 312 312 312 312 312 309 308 308 307 306 307 307 307 307 307 306 305 305 306 307 308 308 309 309 310 309 308 307 307 307 306 306 306 306 306 305 304 304 304 303 303 303 303 302 302 301 301 300 300 299 300 300 300 300 300 299 298 296 294 292 290 288 285 282 278 274 272 270
294 295 296 297 297 298 297 296 295 293 293 292 294 298 303 307 309 311 311 312 313 312 310 309 308 306 305 304 305 306 307 308 308 307 306 305 305 305 306 307 308 308 308 308 308 307 306 306 306 305 305 305 304 304 303 304 304 304 303 303 302 302 301 301 300 300 300 301 301 301 301 300 300 299 297 295 292 290 287 284 281 278 274 270 267
293 294 296 297 297 297 296 295 294 293 292 293 296 301 305 307 308 310 312 313 314 313 310 309 307 305 304 303 305 305 306 306 307 307 307 307 306 306 306 306 306 306 306 307 306 306 306 306 305 305 305 304 304 304 304 304 304 304 303 303 303 302 302 301 301 301 302 302 302 302 302 302 301 300 298 296 293 290 287 283 280 277 273 269 266
291 293 294 295 295 295 294 295 296 296 297 298 301 304 305 307 307 310 313 315 315 312 310 308 305 303 303 304 305 305 305 306 306 307 307 308 308 308 308 308 307 307 306 306 306 306 306 306 306 305 305 304 304 305 305 305 305 304 304 304 304 303 303 303 303 303 303 304 304 304 303 303 302 301 300 297 294 291 287 283 279 276 272 269 265
289 290 292 294 294 293 293 295 297 299 300 302 303 304 305 306 307 311 315 316 315 312 309 307 304 302 302 302 303 304 305 305 306 307 308 309 309 309 309 308 308 307 306 306 306 306 306 307 307 306 306 306 307 307 307 306 305 305 304 305 305 305 305 304 304 304 304 304 304 304 304 304 303 302 300 298 296 293 289 284 280 275 271 268 264
287 288 291 294 293 292 294 296 299 300 302 303 305 306 307 308 310 314 317 317 314 311 308 306 304 303 302 302 302 303 305 306 307 308 309 309 309 309 309 308 307 306 306 306 306 307 307 307 306 307 307 308 309 308 308 307 306 305 306 307 307 307 306 305 305 305 304 304 304 304 304 304 303 302 300 298 296 294 290 286 281 276 271 267 263
286 289 293 294 293 293 295 298 300 301 302 305 307 309 309 310 313 317 318 316 314 311 308 306 304 303 303 303 304 305 307 308 309 309 309 309 309 309 308 307 307 306 307 307 307 307 307 308 308 308 309 309 309 308 308 307 307 307 308 308 308 307 306 306 305 305 305 305 305 305 305 304 304 302 301 299 297 295 291 288 283 277 272 267 262
288 291 293 293 293 295 296 298 299 301 303 307 309 309 309 311 315 318 318 315 313 309 306 305 304 303 303 304 305 306 308 309 309 309 308 308 308 308 307 306 307 307 308 308 307 308 308 309 309 309 309 309 309 309 308 308 308 309 309 309 309 308 307 307 306 306 306 306 306 306 306 305 304 302 300 299 297 294 291 288 284 279 273 267 262
291 292 293 294 295 296 296 297 298 301 304 307 308 309 309 311 315 318 316 313 311 308 305 304 303 303 303 304 305 306 307 307 307 306 307 307 307 307 307 307 308 308 308 308 308 309 310 310 310 310 310 310 310 310 309 309 309 310 310 310 310 309 309 308 307 307 307 307 307 307 306 305 303 302 300 298 296 293 290 287 283 279 274 268 263
292 292 294 295 297 297 297 298 299 302 305 306 307 308 308 310 315 317 314 312 310 307 305 304 303 303 304 305 306 306 306 306 306 306 307 307 307 307 308 308 309 309 308 308 309 310 311 311 312 311 311 310 310 310 310 310 311 312 312 311 311 310 309 308 308 308 308 309 309 308 307 305 304 302 301 298 296 293 289 286 282 279 275 270 265
290 291 294 296 297 298 299 300 301 303 304 305 306 306 307 311 315 315 313 311 308 306 305 303 303 304 305 306 306 307 307 307 307 307 307 307 308 309 309 309 309 308 308 309 310 311 312 313 313 312 312 311 311 312 312 313 313 313 313 312 311 311 311 310 310 310 311 311 310 309 307 306 305 303 301 299 296 293 290 287 283 279 275 271 267
290 291 293 295 297 298 299 300 301 302 303 304 304 304 306 311 314 314 312 310 306 305 304 302 303 303 304 306 306 306 307 307 308 308 308 308 309 309 309 308 308 308 309 310 311 312 313 314 314 314 313 313 314 314 315 314 314 313 313 312 313 313 313 312 312 312 312 312 310 309 308 307 306 304 301 299 296 293 290 287 285 281 277 273 268
290 291 293 294 296 297 298 299 300 301 302 303 304 304 306 311 313 312 310 308 305 303 302 302 302 303 304 305 306 306 307 307 308 308 309 310 310 309 308 308 309 310 311 311 312 313 314 314 315 315 314 314 315 315 315 315 314 314 314 315 315 315 314 314 314 313 313 312 311 310 310 309 307 305 302 299 295 292 290 287 285 283 279 275 270
290 292 293 294 295 296 298 299 300 300 302 304 304 305 307 310 311 310 308 306 304 302 301 301 301 303 304 306 306 306 306 307 308 309 310 311 311 310 309 309 310 311 312 312 313 313 314 315 315 315 315 315 315 316 316 316 316 316 317 317 316 316 315 314 314 314 314 313 312 312 311 310 308 305 303 299 296 293 290 287 284 282 280 277 273
291 292 293 294 295 297 298 299 300 301 302 304 304 306 308 309 309 308 306 304 303 301 300 300 302 304 305 306 306 306 307 307 308 309 310 310 311 311 311 312 312 313 313 313 314 315 316 316 316 316 316 316 317 317 318 318 318 318 317 317 316 316 315 315 315 315 315 314 314 313 312 310 308 306 303 300 297 293 290 287 285 282 280 277 273
291 292 293 294 296 297 298 299 300 301 302 303 304 305 307 307 307 306 304 303 302 300 300 301 303 304 305 306 306 306 307 308 309 310 310 310 310 310 311 312 313 314 315 316 316 317 317 317 317 317 317 318 318 319 319 319 318 318 317 317 316 316 316 316 317 316 316 315 315 314 312 311 309 307 303 300 296 293 289 286 284 282 280 277 274
290 292 293 294 296 297 298 299 300 301 301 302 303 304 305 306 306 305 303 302 301 300 301 302 304 304 305 306 307 307 308 309 311 310 310 310 310 309 310 311 312 314 316 317 317 317 317 318 318 318 318 319 319 319 319 318 318 318 317 317 317 317 318 319 318 318 317 317 316 315 314 312 310 307 304 301 297 293 289 285 283 281 279 277 275
291 292 293 294 296 297 298 299 300 300 301 301 302 303 305 305 304 303 302 300 300 300 302 303 304 304 305 306 307 308 310 311 312 311 311 311 310 310 311 312 314 315 317 317 316 316 317 318 318 318 318 318 319 319 318 318 318 318 317 318 318 319 320 320 319 319 319 318 317 316 315 313 311 308 306 302 298 294 289 285 282 281 280 278 276
291 292 294 295 296 297 298 298 299 299 299 300 301 303 304 303 302 301 300 299 299 301 302 303 303 304 306 307 308 309 312 314 313 313 312 312 313 314 315 315 316 317 317 317 316 316 317 318 318 317 318 319 319 318 318 318 318 318 318 319 320 321 321 321 320 320 320 319 318 316 315 313 311 309 307 304 299 294 288 285 283 282 281 279 276
291 292 294 294 296 297 297 297 297 297 298 299 301 302 302 301 300 299 299 299 300 301 302 302 303 304 306 307 308 311 314 315 314 314 314 315 315 316 317 318 318 319 318 317 317 318 318 318 318 318 319 319 319 319 319 319 318 319 320 321 322 322 322 321 321 321 320 319 318 316 315 314 313 311 309 306 300 294 289 285 283 282 280 278 276
291 293 293 294 295 295 296 296 296 296 298 300 301 301 301 299 298 298 298 299 300 301 302 302 303 304 306 307 310 313 314 315 315 316 316 317 317 318 319 320 320 319 319 319 319 319 319 319 319 320 320 320 320 320 320 320 320 321 321 322 323 323 323 322 322 321 320 320 319 317 317 316 315 315 312 308 302 296 291 288 285 282 280 279 277
291 292 293 293 294 294 294 294 295 296 298 300 300 300 299 298 298 298 298 299 300 301 301 302 303 305 307 309 312 314 315 315 316 317 318 319 319 320 320 320 320 320 320 321 321 321 320 320 321 321 321 321 321 320 320 321 321 322 323 323 324 323 323 323 322 321 321 321 320 319 319 319 318 318 315 310 304 299 295 292 288 284 282 281 279
291 292 292 292 293 293 294 294 295 297 298 299 299 298 297 297 297 297 298 300 300 300 301 302 304 306 310 312 313 314 315 316 318 319 320 320 320 320 320 320 321 322 322 322 322 321 321 321 322 322 321 321 321 321 321 322 323 323 324 324 324 324 323 323 323 322 322 322 321 320 320 320 320 318 316 312 309 304 300 295 290 287 284 282 281
290 291 291 292 292 293 293 294 296 297 297 298 297 297 296 297 297 297 299 299 299 300 301 303 306 310 312 314 314 315 317 318 320 320 320 320 320 320 321 322 322 322 322 321 321 321 321 322 322 322 321 321 322 322 322 323 324 324 324 324 324 324 324 324 323 323 323 322 321 320 321 320 320 319 317 316 312 308 302 297 292 289 286 283 282
290 291 291 291 292 292 293 295 296 297 297 297 296 296 296 297 297 298 298 298 299 300 301 305 310 312 313 313 315 317 319 320 320 320 320 320 321 321 322 322 322 322 321 320 321 321 322 322 322 322 322 322 322 323 323 324 324 324 324 324 324 324 324 324 324 323 322 321 320 320 321 320 320 319 318 317 315 310 304 298 293 289 285 282 281
290 290 291 292 292 293 294 295 296 296 296 296 296 295 296 297 297 297 297 298 299 300 303 308 312 312 313 315 317 319 320 320 320 320 320 321 321 321 322 322 322 321 321 321 321 322 322 322 322 322 322 322 322 323 324 324 325 325 324 324 324 324 324 324 324 323 321 320 320 320 321 321 320 319 320 320 317 312 306 300 295 290 285 281 279
289 290 291 292 293 294 295 296 296 296 296 296 295 296 297 297 296 296 297 298 298 302 307 311 311 312 314 316 318 319 320 320 320 321 321 321 321 321 321 321 320 320 321 322 322 322 322 323 322 322 323 323 323 324 325 325 325 325 324 323 323 323 323 324 323 322 320 319 320 321 321 321 320 321 323 323 319 314 309 304 300 295 289 284 280
289 291 292 293 293 294 296 296 296 296 295 296 296 296 296 296 295 296 297 298 301 305 309 310 311 313 315 317 318 319 320 321 321 321 321 320 320 320 320 320 320 321 322 322 322 323 323 323 323 323 323 324 324 325 325 325 325 324 324 323 323 323 323 323 323 322 320 320 320 321 322 322 322 324 326 326 322 316 311 306 303 299 295 290 284
290 292 292 293 294 295 296 296 295 295 296 296 296 296 295 295 295 296 298 300 304 307 309 310 312 315 316 317 319 320 321 322 321 320 319 319 319 319 319 319 320 321 322 322 323 323 323 323 323 323 324 324 324 325 325 325 324 324 323 323 323 323 323 323 324 323 321 320 321 322 324 324 324 326 328 327 323 317 310 305 302 299 296 292 287
290 292 292 293 294 295 295 295 295 296 297 296 295 295 294 294 295 297 300 303 306 308 309 311 313 314 316 319 321 321 321 320 319 318 318 318 319 319 319 320 321 322 322 322 323 323 323 323 323 323 324 324 324 324 324 325 325 325 324 323 323 323 323 324 325 324 322 321 322 324 326 325 324 326 327 326 322 315 308 305 302 299 295 291 286
290 291 291 292 293 294 294 294 295 296 296 294 295 294 293 294 296 298 301 304 306 308 309 312 313 315 318 320 319 319 318 317 317 317 317 318 318 318 319 320 321 321 322 322 323 323 323 323 323 323 323 324 324 324 325 325 325 325 324 323 323 323 324 326 326 325 323 323 324 326 326 324 323 324 325 322 319 315 312 308 305 302 298 292 287
290 290 291 291 292 293 293 294 295 295 294 294 294 294 293 294 296 300 302 305 307 309 311 313 314 316 317 317 316 316 316 316 316 316 317 317 318 319 320 320 321 321 322 322 322 322 322 322 322 323 323 324 324 325 325 326 325 325 324 324 325 325 326 326 326 326 326 324 324 325 325 323 321 321 321 321 321 321 317 312 309 306 302 298 293
289 289 290 291 291 292 293 294 294 293 293 293 294 294 294 294 298 302 304 306 308 309 311 313 313 314 315 314 315 315 316 316 316 316 316 317 318 319 320 320 321 321 322 322 322 322 322 323 323 323 324 325 325 325 326 326 326 326 326 326 326 326 326 326 327 328 327 324 322 324 324 321 318 319 321 323 324 323 319 315 311 309 306 303 298
288 288 289 290 290 291 292 293 292 292 293 294 294 294 293 296 301 305 306 307 308 309 310 311 311 311 313 313 314 315 316 315 315 315 316 318 319 319 319 320 321 321 322 322 322 322 322 323 323 324 324 325 326 326 327 327 326 327 327 327 327 327 327 328 328 327 326 323 322 322 322 319 318 321 324 325 324 323 320 316 313 311 310 308 304
288 288 288 288 289 290 291 291 291 292 293 294 295 294 294 298 304 306 306 307 308 308 308 308 309 310 312 313 314 315 315 315 315 316 317 318 319 319 319 320 321 321 321 321 321 322 323 323 324 324 325 325 326 327 327 327 327 328 328 329 329 328 328 328 327 326 325 323 321 321 323 323 322 322 323 323 323 323 321 317 315 314 314 311 308
288 287 287 287 288 288 289 290 291 292 293 295 295 294 297 302 305 305 305 305 305 305 306 307 308 310 311 313 314 314 315 315 316 317 318 318 318 318 319 320 320 321 321 321 322 323 323 323 324 324 325 325 326 328 328 328 329 329 329 329 327 325 325 326 325 324 323 322 321 323 326 325 321 320 322 323 324 324 322 319 317 316 315 312 309
287 286 286 286 286 287 288 289 290 291 293 295 295 295 298 301 302 301 300 300 301 303 305 307 308 310 311 312 313 314 315 316 317 317 317 317 318 318 319 320 320 320 321 321 322 323 323 324 324 325 325 326 327 328 328 329 329 329 328 326 324 323 324 324 324 324 323 323 325 325 325 324 321 320 322 324 325 326 324 321 319 317 315 313 312
286 285 285 285 285 286 287 288 290 291 293 294 294 295 297 298 297 297 298 299 301 304 306 307 308 310 311 312 313 315 316 317 317 317 317 317 318 319 319 319 319 320 321 322 322 323 324 324 325 326 326 327 327 328 329 329 329 327 326 325 324 324 324 324 325 326 326 326 325 324 325 326 324 322 323 326 327 327 325 322 319 317 315 315 316
284 284 284 284 284 285 286 288 289 291 292 294 294 295 296 296 296 297 299 301 303 305 306 307 308 309 310 312 314 316 317 317 317 317 317 318 318 319 319 319 319 320 321 322 323 324 324 324 325 326 327 327 328 328 328 328 327 326 325 325 325 325 326 326 327 328 327 326 326 326 328 329 327 325 324 327 327 326 325 322 319 317 317 318 319
283 283 283 283 283 284 286 287 289 290 292 294 294 294 295 296 297 299 300 303 304 305 306 307 308 309 310 313 315 316 317 317 317 317 318 318 318 318 318 318 319 320 322 323 324 324 324 325 326 327 327 327 327 326 326 327 326 325 326 327 327 327 329 329 329 329 328 328 328 329 330 331 330 327 325 326 326 325 323 321 319 319 320 321 322
281 282 282 282 282 283 284 286 288 289 291 293 293 292 294 296 298 300 302 304 304 305 306 307 308 309 311 313 315 317 317 317 317 318 318 318 318 318 318 319 320 321 322 323 324 324 325 326 327 327 327 326 325 325 326 326 326 326 328 329 330 331 331 331 331 330 330 330 330 330 331 332 332 328 325 325 325 324 323 321 319 321 323 324 323
281 281 281 281 281 282 283 285 287 289 291 293 292 292 295 297 299 301 303 304 304 305 307 307 308 310 312 314 316 316 317 317 318 318 318 318 317 317 318 319 320 321 323 323 324 324 325 327 327 327 326 325 324 324 326 327 327 327 329 331 331 332 332 332 332 331 331 331 331 331 332 332 331 329 327 326 324 322 323 321 321 323 325 325 323
280 280 279 280 280 281 282 284 287 289 291 292 292 293 294 296 299 302 303 304 304 306 307 308 310 312 314 315 315 316 316 317 318 318 318 317 317 317 318 319 320 321 323 323 324 324 326 327 327 326 326 325 324 324 326 328 328 327 329 332 333 334 333 333 332 332 332 332 331 331 331 331 331 329 329 328 325 322 322 322 322 323 325 325 324
280 279 279 279 279 281 282 284 287 289 291 291 292 293 294 297 300 302 303 305 306 308 310 312 313 313 314 314 315 315 316 317 318 317 317 316 316 317 318 319 321 322 323 323 324 325 327 327 327 326 326 325 324 325 327 329 328 328 330 332 335 336 335 333 333 333 333 331 330 330 330 331 332 329 329 330 326 320 320 322 323 324 325 326 324
Height
10833 10831 10830 10830 10828 10825 10822 10821 10820 10817 10815 10812 10810 10807 10804 10801 10798 10796 10794 10794 10794 10793 10792 10788 10782 10777 10774 10772 10768 10765 10764 10763 10761 10758 10756 10754 10753 10751 10750 10748 10747 10745 10743 10741 10738 10736 10734 10732 10729 10727 10724 10722 10719 10718 10716 10713 10709 10705 10702 10698 10694 10690 10687 10684 10681 10678 10674 10670 10667 10664 10661 10658 10655 10652 10650 10648 10646 10645 10644 10643 10642 10641 10641 10641 10641
10831 10829 10827 10826 10825 10823 10820 10818 10817 10814 10812 10810 10807 10804 10802 10799 10796 10793 10790 10788 10787 10787 10787 10786 10781 10776 10772 10768 10764 10760 10757 10755 10754 10753 10751 10750 10749 10747 10745 10744 10742 10740 10737 10735 10733 10730 10728 10726 10724 10721 10719 10716 10714 10711 10709 10706 10703 10699 10695 10691 10687 10683 10680 10677 10674 10670 10667 10663 10660 10656 10653 10650 10647 10645 10643 10641 10639 10637 10637 10637 10635 10634 10634 10633 10634
10828 10826 10825 10823 10822 10820 10817 10816 10814 10811 10810 10808 10805 10801 10799 10797 10794 10793 10790 10786 10783 10781 10781 10780 10777 10774 10770 10766 10762 10757 10752 10749 10748 10747 10746 10745 10744 10743 10741 10739 10737 10735 10732 10729 10727 10725 10723 10721 10718 10716 10713 10711 10708 10705 10702 10699 10696 10692 10688 10684 10680 10677 10673 10670 10666 10663 10659 10656 10653 10650 10646 10643 10640 10637 10636 10634 10632 10630 10629 10630 10629 10627 10627 10627 10626
10825 10823 10822 10820 10819 10817 10815 10812 10811 10809 10807 10805 10802 10798 10796 10794 10792 10791 10789 10786 10783 10778 10775 10773 10771 10768 10764 10762 10759 10756 10751 10747 10744 10743 10742 10740 10739 10738 10736 10735 10733 10730 10727 10724 10722 10720 10718 10715 10713 10711 10708 10705 10702 10699 10695 10692 10689 10685 10681 10677 10673 10669 10666 10662 10658 10655 10652 10648 10646 10644 10640 10637 10633 10630 10628 10627 10625 10623 10622 10622 10622 10620 10620 10620 10620
10822 10820 10819 10817 10816 10815 10813 10810 10809 10808 10805 10802 10800 10795 10793 10790 10788 10787 10784 10780 10777 10773 10769 10766 10764 10762 10758 10755 10754 10753 10750 10746 10742 10739 10737 10735 10734 10732 10730 10729 10728 10726 10723 10719 10716 10715 10713 10710 10708 10705 10702 10699 10696 10692 10688 10685 10682 10678 10674 10670 10666 10662 10658 10654 10650 10647 10644 10641 10638 10636 10634 10631 10628 10625 10622 10620 10618 10616 10614 10615 10615 10613 10613 10613 10613
10818 10817 10815 10814 10813 10812 10810 10808 10806 10804 10802 10799 10797 10793 10790 10787 10784 10782 10779 10775 10770 10767 10764 10761 10759 10756 10753 10750 10748 10748 10747 10745 10741 10737 10734 10731 10729 10726 10724 10722 10721 10721 10719 10716 10712 10709 10707 10704 10702 10699 10696 10693 10689 10686 10682 10678 10674 10671 10667 10663 10659 10655 10651 10647 10643 10640 10637 10634 10631 10629 10627 10625 10622 10619 10616 10613 10611 10608 10606 10607 10607 10606 10605 10605 10606
10814 10812 10811 10810 10809 10807 10807 10805 10802 10799 10797 10794 10792 10790 10787 10785 10782 10779 10777 10773 10769 10764 10760 10757 10755 10751 10748 10745 10744 10742 10742 10741 10740 10737 10733 10729 10726 10722 10719 10716 10714 10712 10712 10711 10708 10704 10701 10698 10695 10693 10690 10686 10683 10679 10675 10671 10667 10663 10659 10655 10652 10648 10644 10640 10637 10633 10630 10628 10625 10622 10619 10617 10615 10613 10610 10607 10604 10601 10599 10598 10599 10599 10598 10597 10598
10810 10809 10807 10806 10805 10804 10804 10802 10800 10797 10795 10792 10789 10787 10785 10782 10779 10776 10773 10770 10767 10762 10756 10752 10750 10748 10744 10742 10740 10738 10736 10735 10734 10734 10732 10730 10726 10721 10718 10713 10709 10706 10703 10702 10701 10698 10695 10692 10690 10687 10684 10680 10676 10673 10669 10665 10660 10656 10652 10648 10644 10641 10637 10634 10630 10627 10624 10621 10618 10615 10612 10609 10607 10605 10603 10600 10598 10595 10592 10590 10589 10590 10590 10590 10590
10807 10806 10804 10803 10801 10801 10800 10799 10797 10795 10793 10791 10788 10786 10783 10780 10776 10772 10768 10765 10762 10758 10752 10748 10746 10743 10741 10738 10736 10735 10733 10730 10729 10727 10727 10726 10724 10721 10717 10713 10709 10705 10700 10697 10695 10692 10690 10687 10684 10681 10678 10674 10670 10666 10662 10658 10654 10649 10645 10641 10637 10634 10631 10627 10624 10620 10617 10614 10611 10607 10604 10601 10598 10596 10594 10592 10590 10588 10585 10582 10581 10581 10581 10581 10582
10804 10803 10801 10800 10798 10797 10796 10795 10793 10792 10791 10788 10786 10784 10781 10777 10773 10769 10764 10760 10757 10753 10749 10745 10742 10738 10736 10734 10732 10730 10729 10727 10725 10723 10720 10719 10718 10716 10713 10709 10706 10702 10698 10694 10690 10687 10684 10681 10678 10675 10672 10668 10664 10660 10655 10651 10647 10642 10638 10634 10630 10627 10623 10620 10617 10613 10610 10607 10603 10599 10596 10593 10590 10587 10584 10583 10581 10579 10577 10574 10573 10572 10572 10572 10573
10801 10799 10798 10796 10795 10793 10792 10791 10789 10788 10786 10784 10781 10779 10777 10773 10769 10764 10760 10755 10752 10748 10744 10742 10739 10736 10732 10730 10728 10726 10725 10723 10721 10718 10716 10713 10711 10709 10706 10703 10700 10696 10693 10690 10686 10682 10678 10674 10671 10667 10664 10660 10657 10654 10649 10644 10640 10636 10632 10628 10624 10620 10617 10613 10610 10606 10602 10599 10595 10591 10587 10584 10580 10577 10574 10572 10570 10569 10568 10566 10564 10563 10562 10562 10563
10797 10795 10794 10793 10791 10789 10788 10786 10785 10783 10781 10779 10776 10774 10771 10768 10764 10760 10755 10751 10747 10743 10740 10738 10736 10733 10730 10727 10725 10723 10721 10719 10716 10714 10711 10708 10706 10703 10700 10697 10694 10690 10687 10684 10681 10678 10674 10670 10665 10660 10655 10651 10648 10645 10642 10638 10634 10629 10625 10621 10618 10614 10610 10607 10603 10599 10595 10592 10588 10584 10580 10576 10572 10568 10565 10562 10559 10557 10556 10555 10554 10553 10553 10553 10553
10792 10791 10790 10789 10787 10785 10783 10781 10780 10778 10775 10772 10770 10767 10765 10762 10758 10754 10750 10747 10743 10739 10736 10733 10732 10729 10727 10724 10722 10720 10717 10714 10712 10709 10707 10704 10701 10698 10695 10691 10688 10685 10681 10678 10675 10672 10669 10665 10660 10655 10650 10645 10641 10637 10634 10631 10627 10623 10619 10615 10611 10607 10604 10600 10596 10592 10589 10585 10580 10576 10572 10567 10563 10559 10555 10552 10549 10547 10545 10544 10543 10543 10542 10542 10543
10789 10787 10786 10785 10783 10780 10778 10777 10775 10772 10769 10767 10764 10762 10759 10756 10752 10748 10745 10742 10739 10735 10732 10729 10727 10725 10723 10720 10718 10716 10713 10710 10707 10705 10702 10700 10697 10693 10690 10686 10682 10679 10676 10672 10669 10665 10662 10658 10654 10649 10645 10640 10636 10632 10628 10624 10620 10616 10613 10609 10605 10601 10597 10593 10589 10585 10581 10577 10572 10567 10563 10558 10553 10549 10545 10541 10537 10535 10533 10532 10531 10531 10531 10531 10532
10785 10784 10784 10782 10779 10777 10775 10773 10770 10767 10765 10762 10760 10757 10754 10751 10748 10744 10741 10738 10735 10732 10729 10726 10724 10722 10719 10717 10714 10712 10710 10706 10703 10701 10698 10696 10693 10689 10685 10681 10678 10674 10670 10666 10662 10659 10655 10652 10647 10643 10639 10635 10630 10626 10622 10618 10614 10610 10606 10602 10598 10594 10590 10586 10582 10578 10573 10569 10564 10559 10554 10548 10543 10539 10535 10530 10527 10523 10521 10519 10518 10518 10518 10519 10521
10780 10780 10779 10777 10775 10773 10771 10769 10766 10763 10761 10758 10756 10753 10750 10747 10744 10741 10737 10735 10732 10729 10726 10723 10721 10718 10716 10713 10711 10709 10707 10704 10700 10697 10695 10692 10689 10685 10681 10677 10673 10669 10664 10660 10656 10653 10649 10645 10641 10637 10632 10628 10624 10620 10616 10611 10607 10603 10599 10595 10591 10587 10582 10578 10574 10569 10565 10560 10555 10549 10544 10538 10533 10528 10524 10520 10516 10513 10510 10507 10506 10505 10506 10507 10508
10777 10776 10774 10772 10769 10768 10766 10764 10761 10759 10757 10754 10752 10749 10747 10744 10740 10737 10734 10731 10728 10726 10723 10720 10717 10715 10712 10709 10706 10704 10702 10699 10696 10693 10690 10687 10684 10680 10676 10672 10668 10664 10659 10655 10651 10647 10643 10638 10634 10630 10626 10622 10618 10614 10609 10605 10600 10595 10591 10587 10583 10579 10575 10570 10566 10561 10556 10551 10545 10539 10533 10528 10522 10517 10512 10508 10504 10501 10498 10496 10494 10494 10494 10495 10496
10776 10774 10771 10768 10766 10763 10761 10759 10757 10754 10752 10750 10748 10745 10743 10740 10736 10734 10731 10728 10724 10722 10720 10717 10714 10711 10709 10706 10702 10700 10697 10694 10691 10687 10684 10682 10679 10676 10672 10667 10663 10659 10655 10650 10646 10642 10638 10633 10628 10623 10619 10615 10611 10606 10602 10597 10592 10588 10583 10580 10576 10571 10566 10561 10557 10552 10546 10541 10535 10529 10523 10517 10512 10507 10501 10497 10493 10489 10487 10484 10483 10482 10482 10483 10485
10773 10772 10769 10766 10763 10760 10758 10755 10753 10751 10748 10746 10744 10741 10738 10735 10732 10730 10727 10724 10721 10718 10716 10714 10711 10708 10706 10703 10700 10696 10693 10690 10687 10683 10679 10676 10674 10672 10668 10663 10659 10655 10650 10645 10641 10637 10632 10627 10622 10617 10612 10608 10604 10599 10595 10590 10586 10581 10576 10572 10567 10562 10557 10551 10546 10541 10536 10530 10524 10518 10513 10507 10502 10497 10492 10487 10483 10479 10476 10473 10471 10470 10470 10472 10474
10769 10767 10766 10763 10760 10757 10754 10752 10750 10747 10745 10742 10739 10737 10734 10731 10728 10725 10722 10720 10717 10715 10712 10710 10708 10705 10703 10700 10697 10694 10691 10688 10684 10680 10675 10670 10667 10666 10663 10659 10654 10650 10645 10639 10635 10632 10627 10622 10617 10611 10607 10602 10598 10593 10589 10584 10579 10574 10569 10563 10559 10553 10548 10542 10536 10531 10525 10519 10513 10507 10502 10497 10492 10487 10482 10478 10473 10469 10466 10462 10460 10458 10458 10459 10462
10763 10761 10760 10758 10756 10753 10750 10747 10745 10743 10740 10738 10735 10732 10729 10726 10724 10721 10718 10715 10713 10711 10708 10706 10704 10701 10699 10697 10694 10691 10688 10685 10681 10678 10673 10667 10662 10658 10656 10653 10649 10646 10641 10634 10629 10626 10622 10616 10611 10606 10601 10596 10592 10587 10582 10576 10570 10564 10560 10555 10550 10545 10539 10533 10527 10521 10515 10508 10502 10497 10492 10488 10483 10477 10472 10468 10463 10459 10455 10452 10450 10448 10446 10447 10449
10757 10755 10754 10752 10750 10747 10745 10742 10740 10738 10735 10733 10730 10727 10724 10721 10719 10716 10713 10711 10708 10706 10704 10701 10699 10697 10695 10692 10690 10687 10684 10681 10678 10675 10671 10666 10659 10653 10649 10646 10642 10639 10635 10628 10622 10619 10615 10609 10605 10600 10595 10590 10584 10579 10574 10568 10562 10556 10551 10547 10542 10537 10531 10524 10518 10511 10504 10498 10492 10487 10482 10478 10473 10468 10463 10458 10454 10449 10445 10442 10439 10437 10436 10435 10437
10751 10749 10748 10746 10743 10741 10739 10736 10734 10732 10730 10727 10724 10722 10719 10716 10714 10711 10709 10706 10704 10701 10699 10697 10695 10692 10690 10687 10684 10682 10679 10676 10673 10670 10667 10663 10658 10652 10647 10643 10637 10632 10628 10621 10615 10611 10607 10602 10597 10592 10587 10582 10577 10571 10566 10561 10556 10550 10544 10539 10534 10529 10522 10515 10508 10500 10494 10487 10482 10477 10472 10468 10464 10459 10454 10449 10445 10440 10436 10432 10428 10425 10424 10424 10425
10746 10743 10742 10741 10737 10735 10734 10731 10728 10726 10724 10721 10719 10716 10713 10711 10709 10706 10704 10702 10699 10697 10694 10692 10690 10687 10685 10682 10679 10676 10673 10671 10668 10664 10661 10657 10654 10649 10645 10640 10636 10630 10624 10617 10610 10605 10601 10596 10590 10585 10580 10575 10569 10564 10559 10554 10549 10544 10537 10531 10525 10519 10512 10505 10497 10489 10483 10477 10471 10466 10462 10458 10454 10449 10445 10440 10436 10431 10427 10422 10418 10415 10413 10413 10414
10741 10738 10736 10735 10732 10730 10728 10726 10723 10720 10718 10716 10713 10711 10708 10706 10704 10701 10699 10697 10694 10692 10690 10688 10685 10682 10680 10677 10674 10671 10668 10665 10661 10658 10654 10651 10647 10643 10639 10635 10631 10627 10621 10615 10608 10601 10596 10592 10587 10581 10575 10570 10564 10558 10553 10547 10542 10536 10530 10522 10515 10509 10502 10494 10486 10479 10472 10466 10461 10456 10452 10448 10444 10440 10436 10431 10427 10422 10417 10413 10408 10405 10403 10403 10403
10737 10734 10730 10729 10727 10725 10723 10720 10718 10715 10713 10711 10708 10706 10704 10701 10699 10697 10694 10692 10690 10688 10685 10683 10680 10678 10675 10672 10669 10666 10662 10659 10655 10651 10648 10644 10640 10635 10631 10627 10624 10620 10615 10610 10604 10597 10591 10587 10583 10577 10571 10566 10559 10552 10546 10540 10534 10528 10521 10514 10506 10499 10491 10483 10475 10468 10462 10457 10451 10446 10442 10439 10435 10431 10427 10423 10418 10413 10408 10404 10400 10396 10394 10393 10393
10731 10730 10726 10722 10721 10719 10717 10715 10713 10710 10708 10705 10703 10701 10699 10696 10694 10692 10690 10687 10685 10683 10681 10678 10675 10672 10670 10667 10663 10660 10657 10653 10649 10645 10641 10637 10633 10628 10624 10619 10615 10612 10608 10603 10599 10592 10586 10581 10576 10571 10565 10559 10553 10546 10539 10532 10526 10519 10512 10504 10496 10488 10480 10472 10464 10458 10453 10447 10442 10437 10433 10429 10425 10422 10418 10414 10410 10405 10400 10395 10391 10388 10385 10383 10383
10725 10724 10721 10717 10716 10714 10712 10710 10707 10705 10703 10700 10698 10696 10694 10692 10689 10687 10685 10683 10681 10678 10676 10673 10670 10667 10664 10661 10658 10655 10652 10648 10643 10639 10635 10631 10627 10622 10617 10612 10607 10603 10599 10595 10590 10585 10579 10573 10567 10562 10557 10551 10544 10537 10531 10524 10517 10509 10501 10494 10485 10477 10470 10462 10454 10449 10443 10438 10432 10426 10422 10418 10414 10412 10409 10405 10401 10396 10391 10386 10382 10379 10376 10374 10374
10719 10718 10715 10712 10710 10709 10707 10704 10702 10700 10698 10695 10693 10691 10689 10687 10685 10683 10680 10678 10676 10673 10670 10667 10665 10662 10659 10656 10653 10650 10646 10642 10638 10633 10629 10625 10620 10616 10611 10606 10601 10596 10591 10586 10581 10576 10571 10566 10560 10553 10548 10542 10535 10528 10521 10514 10506 10498 10491 10483 10475 10467 10459 10452 10445 10439 10433 10428 10421 10415 10411 10407 10403 10401 10399 10396 10392 10387 10382 10377 10374 10370 10367 10366 10365
10713 10712 10709 10707 10705 10704 10702 10699 10697 10695 10693 10691 10689 10687 10685 10683 10681 10678 10676 10674 10671 10668 10665 10662 10659 10657 10654 10651 10648 10644 10640 10636 10632 10627 10623 10619 10615 10610 10606 10601 10595 10589 10584 10579 10574 10568 10562 10558 10553 10546 10539 10533 10527 10519 10511 10503 10495 10487 10480 10472 10464 10456 10449 10442 10435 10428 10423 10417 10411 10406 10402 10398 10394 10392 10389 10387 10383 10378 10374 10369 10366 10362 10359 10357 10356
10707 10706 10704 10702 10700 10698 10696 10694 10692 10690 10688 10686 10684 10682 10680 10678 10676 10674 10671 10669 10665 10662 10659 10657 10654 10652 10650 10646 10642 10638 10634 10630 10626 10622 10617 10613 10609 10604 10600 10594 10589 10583 10577 10572 10568 10564 10557 10550 10545 10539 10532 10525 10519 10511 10502 10494 10486 10478 10469 10462 10454 10446 10439 10433 10425 10418 10412 10407 10402 10398 10395 10391 10387 10384 10381 10378 10374 10370 10366 10362 10358 10355 10352 10349 10348
10701 10700 10698 10697 10695 10693 10691 10689 10687 10685 10683 10681 10679 10677 10676 10674 10671 10669 10666 10663 10660 10657 10654 10652 10650 10647 10644 10640 10636 10632 10628 10624 10620 10616 10612 10608 10603 10598 10593 10588 10583 10577 10572 10566 10561 10557 10553 10546 10539 10532 10525 10517 10511 10504 10496 10487 10479 10469 10460 10452 10445 10437 10430 10424 10417 10410 10404 10399 10394 10391 10388 10384 10380 10377 10373 10370 10366 10361 10357 10354 10351 10349 10346 10343 10341
10695 10694 10693 10691 10689 10687 10686 10684 10682 10680 10678 10676 10674 10672 10671 10669 10666 10664 10661 10658 10654 10651 10649 10647 10645 10642 10638 10634 10630 10626 10622 10618 10615 10611 10606 10602 10597 10593 10587 10582 10577 10571 10566 10560 10554 10548 10545 10540 10533 10526 10520 10512 10504 10497 10489 10480 10471 10461 10451 10443 10436 10429 10423 10418 10411 10403 10397 10391 10388 10385 10381 10377 10373 10370 10367 10363 10358 10354 10350 10346 10344 10342 10340 10337 10335
10689 10688 10687 10686 10684 10682 10680 10678 10677 10675 10673 10671 10669 10667 10666 10664 10661 10658 10656 10652 10649 10646 10644 10642 10639 10636 10632 10629 10625 10621 10617 10613 10609 10605 10600 10596 10591 10586 10581 10576 10571 10565 10560 10554 10547 10540 10534 10530 10525 10518 10511 10504 10497 10489 10481 10473 10464 10455 10445 10436 10429 10422 10416 10413 10407 10398 10390 10384 10381 10378 10374 10369 10366 10363 10360 10356 10352 10346 10342 10338 10336 10335 10333 10331 10329
10684 10683 10682 10680 10679 10677 10675 10673 10671 10669 10668 10666 10664 10663 10661 10659 10656 10653 10650 10647 10644 10642 10639 10636 10633 10630 10626 10623 10619 10615 10611 10607 10603 10599 10594 10590 10585 10580 10575 10570 10565 10559 10554 10548 10541 10534 10527 10520 10515 10509 10502 10495 10488 10481 10474 10466 10458 10450 10440 10431 10423 10416 10410 10407 10402 10393 10384 10378 10374 10371 10366 10361 10357 10355 10352 10349 10345 10340 10335 10331 10329 10327 10326 10325 10323
10679 10678 10677 10675 10673 10672 10670 10668 10666 10664 10663 10661 10659 10658 10656 10653 10651 10648 10645 10642 10640 10637 10634 10631 10627 10624 10621 10617 10613 10609 10605 10601 10597 10593 10589 10584 10579 10574 10568 10563 10558 10553 10548 10542 10536 10529 10522 10514 10507 10501 10496 10489 10482 10475 10469 10460 10452 10444 10434 10425 10418 10410 10404 10400 10396 10388 10378 10371 10366 10363 10358 10352 10348 10346 10345 10342 10339 10334 10330 10325 10322 10321 10320 10318 10316
10674 10673 10672 10670 10668 10666 10664 10662 10660 10659 10658 10656 10654 10653 10650 10648 10645 10643 10640 10637 10635 10632 10628 10625 10622 10618 10615 10611 10607 10603 10599 10596 10592 10588 10583 10578 10573 10568 10562 10557 10552 10547 10541 10536 10530 10524 10517 10509 10501 10495 10490 10483 10476 10469 10463 10455 10447 10437 10427 10417 10411 10406 10399 10393 10389 10381 10372 10364 10359 10356 10351 10344 10340 10339 10337 10335 10333 10329 10324 10319 10316 10314 10313 10312 10310
10669 10668 10667 10665 10663 10661 10659 10657 10656 10655 10653 10651 10649 10647 10644 10642 10640 10637 10635 10632 10629 10626 10623 10619 10616 10612 10609 10605 10601 10598 10595 10591 10587 10582 10577 10572 10567 10562 10557 10552 10546 10541 10535 10529 10524 10518 10512 10505 10497 10490 10484 10478 10471 10463 10455 10448 10441 10433 10424 10413 10404 10398 10393 10387 10382 10375 10366 10357 10352 10350 10347 10339 10334 10333 10332 10330 10327 10323 10318 10313 10310 10307 10306 10305 10304
10664 10663 10661 10660 10658 10655 10653 10652 10651 10650 10648 10646 10644 10642 10638 10636 10635 10632 10629 10627 10623 10620 10617 10614 10610 10606 10603 10600 10597 10594 10590 10586 10581 10576 10571 10566 10561 10556 10551 10546 10540 10535 10529 10523 10518 10512 10506 10499 10491 10485 10479 10473 10465 10457 10449 10441 10433 10426 10419 10410 10400 10392 10385 10381 10378 10372 10363 10353 10347 10345 10342 10334 10329 10328 10327 10323 10320 10316 10311 10307 10303 10301 10299 10298 10297
10659 10658 10656 10654 10652 10650 10648 10648 10646 10645 10643 10642 10639 10636 10633 10630 10629 10627 10624 10621 10618 10614 10611 10608 10605 10602 10599 10596 10593 10589 10585 10580 10576 10571 10566 10560 10556 10551 10545 10540 10535 10529 10523 10517 10511 10505 10500 10493 10485 10478 10472 10465 10458 10449 10441 10434 10425 10417 10411 10404 10397 10390 10382 10375 10372 10368 10361 10352 10344 10341 10339 10331 10324 10322 10320 10316 10313 10309 10305 10300 10297 10294 10292 10291 10290
10653 10652 10651 10649 10647 10645 10644 10643 10641 10640 10639 10637 10634 10631 10627 10624 10622 10621 10618 10615 10612 10609 10606 10603 10600 10598 10595 10592 10588 10584 10579 10575 10570 10565 10560 10555 10550 10545 10540 10535 10529 10524 10517 10511 10505 10499 10493 10487 10479 10471 10464 10458 10451 10443 10435 10427 10419 10412 10405 10398 10391 10385 10378 10371 10365 10362 10358 10350 10341 10338 10335 10328 10320 10316 10314 10311 10307 10304 10299 10294 10290 10288 10285 10284 10282
10648 10647 10646 10644 10643 10641 10640 10638 10636 10635 10634 10632 10629 10625 10622 10619 10617 10614 10612 10609 10607 10604 10601 10598 10595 10593 10590 10586 10582 10578 10574 10569 10564 10559 10554 10549 10544 10540 10535 10529 10524 10518 10512 10505 10499 10493 10486 10480 10473 10465 10458 10451 10445 10438 10430 10421 10414 10407 10399 10392 10385 10380 10375 10370 10363 10357 10353 10347 10340 10334 10330 10323 10315 10311 10309 10306 10303 10298 10293 10288 10284 10281 10279 10277 10275
10643 10642 10640 10640 10638 10636 10635 10633 10631 10630 10629 10627 10624 10619 10616 10615 10612 10609 10607 10604 10602 10599 10596 10594 10590 10588 10585 10581 10577 10573 10568 10563 10558 10554 10549 10544 10539 10534 10529 10523 10518 10512 10506 10500 10494 10487 10480 10474 10467 10460 10453 10445 10439 10432 10425 10416 10408 10401 10394 10389 10383 10378 10374 10370 10364 10357 10350 10345 10338 10331 10325 10318 10311 10306 10304 10301 10297 10293 10288 10283 10279 10276 10272 10270 10267
10638 10636 10635 10634 10633 10631 10630 10629 10627 10625 10624 10622 10619 10615 10612 10610 10608 10605 10603 10600 10597 10594 10592 10589 10586 10582 10579 10576 10572 10568 10563 10558 10553 10548 10543 10538 10533 10528 10523 10518 10512 10507 10501 10494 10488 10481 10474 10467 10461 10454 10446 10439 10432 10427 10420 10413 10405 10398 10392 10387 10381 10375 10370 10366 10362 10355 10348 10342 10334 10328 10323 10316 10308 10301 10298 10295 10292 10288 10283 10278 10274 10270 10266 10263 10261
10633 10631 10630 10629 10628 10626 10625 10624 10622 10620 10618 10617 10614 10611 10609 10606 10603 10600 10598 10595 10593 10590 10587 10584 10581 10577 10574 10570 10566 10562 10558 10553 10547 10542 10538 10532 10527 10522 10517 10511 10506 10500 10495 10489 10482 10475 10468 10460 10453 10446 10439 10432 10426 10421 10415 10409 10403 10397 10391 10385 10377 10370 10365 10360 10356 10350 10343 10338 10332 10325 10319 10313 10305 10296 10292 10289 10286 10283 10278 10273 10269 10264 10260 10257 10255
10627 10625 10625 10624 10622 10621 10619 10618 10617 10614 10613 10612 10608 10605 10604 10601 10598 10595 10593 10591 10588 10586 10583 10579 10575 10572 10568 10564 10561 10557 10552 10547 10542 10537 10532 10527 10522 10516 10511 10505 10500 10494 10489 10483 10476 10469 10462 10455 10447 10439 10432 10426 10420 10415 10410 10406 10400 10395 10390 10383 10375 10367 10360 10354 10350 10345 10338 10333 10328 10321 10315 10309 10302 10293 10286 10283 10281 10277 10273 10268 10263 10259 10255 10251 10249
10621 10619 10619 10618 10617 10615 10614 10613 10611 10608 10607 10607 10603 10599 10598 10596 10593 10591 10588 10586 10584 10580 10577 10574 10570 10566 10562 10558 10555 10551 10547 10542 10536 10531 10526 10521 10515 10510 10505 10499 10494 10488 10482 10476 10469 10463 10456 10449 10441 10433 10426 10419 10415 10411 10407 10402 10397 10391 10385 10379 10371 10363 10355 10348 10343 10338 10332 10326 10321 10316 10310 10305 10300 10291 10282 10278 10276 10273 10268 10263 10258 10254 10250 10247 10243
10615 10614 10613 10612 10611 10610 10609 10607 10605 10602 10602 10602 10598 10594 10592 10590 10588 10585 10583 10581 10578 10575 10572 10568 10564 10561 10557 10553 10549 10545 10541 10536 10531 10525 10520 10515 10509 10504 10499 10494 10488 10482 10476 10470 10463 10457 10450 10443 10435 10427 10420 10414 10410 10406 10402 10397 10392 10386 10380 10373 10365 10357 10351 10344 10338 10333 10327 10321 10315 10311 10306 10301 10297 10290 10281 10274 10271 10268 10264 10258 10253 10249 10245 10242 10239
10609 10608 10607 10606 10605 10605 10603 10602 10599 10596 10595 10595 10591 10587 10586 10585 10583 10580 10577 10575 10572 10570 10567 10563 10559 10556 10552 10548 10543 10540 10535 10530 10525 10520 10514 10508 10503 10498 10493 10488 10483 10477 10471 10465 10458 10451 10445 10438 10430 10423 10416 10409 10404 10400 10396 10391 10386 10381 10377 10371 10363 10355 10348 10342 10336 10330 10324 10319 10313 10307 10302 10298 10294 10289 10281 10271 10265 10262 10260 10255 10248 10244 10241 10237 10235
10603 10602 10601 10600 10599 10599 10598 10596 10593 10590 10589 10588 10584 10581 10580 10580 10578 10576 10572 10568 10566 10564 10561 10557 10553 10550 10546 10542 10538 10534 10529 10524 10519 10514 10508 10503 10497 10492 10488 10483 10477 10472 10466 10460 10454 10447 10440 10433 10426 10418 10411 10404 10399 10394 10389 10384 10379 10375 10372 10367 10360 10353 10345 10339 10333 10327 10321 10315 10310 10305 10300 10295 10291 10288 10282 10273 10262 10254 10254 10252 10246 10241 10237 10233 10230
10597 10596 10595 10594 10594 10593 10593 10591 10588 10584 10582 10581 10577 10574 10574 10573 10572 10570 10567 10563 10559 10555 10553 10549 10546 10543 10540 10536 10532 10527 10523 10518 10514 10508 10503 10497 10492 10487 10482 10477 10472 10466 10460 10454 10447 10441 10435 10428 10421 10413 10406 10399 10392 10387 10382 10377 10372 10367 10365 10361 10356 10349 10342 10335 10330 10326 10320 10314 10308 10304 10300 10295 10290 10285 10281 10277 10267 10255 10249 10247 10245 10239 10234 10230 10227